CZ-6A DEB, 60788

Orbit data source: Space-Track

CZ-6A DEB, 60788 is space debris in LEO originally from a launch on Tue, 06 Aug 2024 UTC launched from the Taiyaun Space Center, China (TSC). Debris objects in space refer to the collection of defunct objects orbiting the Earth. Examples of debris include non-operational satellites, rocket bodies, and fragments generated from explosions, collisions, or faulty payload assembly.

Loading next visibility...
Identifier
60788, 2024-140FP
Orbit
LEO
Country
Flag of CNCN / PRC
Related business
Manufacturer
SAST
Mission
Spacecraft
Bus & Motor
Unknown
Mass
Unknown
Launch date (UTC)
2024-08-06 (2 years ago)
Launch vehicle
Unknown
Launch site
Taiyaun Space Center, China (TSC)
Object type
Payload
Rocket body
Debris
Shape & HBR
Unknown shape, 0.1 m
Radar Cross Section
Small (<0.1 m²)

Expand to show TLE details & history
Last TLE update: 14 hours ago

TLE from 14 hours ago
0 CZ-6A DEB
1 60788U 24140FP  26171.26485230  .00000855  00000-0  37339-3 0  9993
2 60788  88.9553 270.5871 0043691 179.7200 180.4024 14.22525513 93986
Epoch: 2026-06-20T06:21Z
TLE epoch observation values (Epoch: 2026-06-20T06:21:23.238Z)
Latitude
-0.00003°
Longitude
-93.24169°
Altitude
851.322 km
Speed
7.411 km/s
True Right ascension
18h 02m 20s
True Declination
0° 00' 00"
Sunlit
Object was in full shadow at epoch
Visualization orbit readout
Latitude
Unknown
Longitude
Unknown
Altitude
Unknown
Speed
Unknown
Apparent Right ascension
Unknown
Apparent Declination
Unknown
Sunlit
N/A
Visualization observer readout
Local Sidereal Time
07:13:51
Azimuth
Unknown
Elevation
Unknown
Doppler factor
Unknown
Orbital elements
Apogee altitude
845.194 km
Perigee altitude
782.35 km
Semi-major axis
7,191.909 km
Eccentricity
0.00437
Inclination
88.9553°
RAAN
270.5871°
Arg. of periapsis
179.72°
True anomaly
180.3989°
Mean anomaly
180.4024°
Eccentric anomaly
180.40065°
Mean motion
3.55858 °/min
Orbital period
101.16 mins
BSTAR
0.00037339
Loading maneuver chart data...
Computing Atmospheric mass density...
Loading historical data...
Loading historical data...
Loading historical data...
Loading historical data...
Loading historical data...
Loading historical data...
Loading historical data...

Documentation

Showing up to 5 results
|